Total_Precipitation_Accumulation
1.31 1.16 1.83 1.76 1.53 1.34 1.24 1.24 1.27 1.34 1.42 1.39 1.25 1.04 0.89 0.85 0.89 0.95 1.02 0.94 0.86 0.86 0.87 0.88 0.85 0.83 0.74 0.68 0.73 0.87 1.03 1.07 1.01 0.99 1.10 1.19 1.23 1.30 1.54 1.77 1.84 1.89 1.81
0.96 1.05 1.67 1.61 1.44 1.28 1.21 1.25 1.25 1.22 1.22 1.23 1.24 1.09 0.97 0.83 0.84 0.90 0.91 0.87 0.81 0.82 0.82 0.80 0.84 0.84 0.75 0.74 0.84 0.99 1.05 1.08 1.02 1.06 1.31 1.38 1.40 1.45 1.53 1.64 1.79 1.90 1.82
0.87 0.94 1.30 1.54 1.46 1.33 1.24 1.20 1.20 1.16 1.15 1.15 1.14 1.14 1.03 0.90 0.79 0.85 0.84 0.79 0.80 0.79 0.78 0.76 0.79 0.80 0.78 0.83 0.98 1.08 1.03 1.10 1.21 1.33 1.67 1.96 1.61 1.47 1.43 1.58 1.61 1.65 1.68
0.77 0.87 1.21 1.60 1.52 1.43 1.37 1.37 1.33 1.20 1.11 1.09 1.03 0.99 0.96 0.92 0.84 0.86 0.92 0.82 0.82 0.78 0.76 0.72 0.72 0.78 0.80 0.88 1.03 1.03 1.02 1.18 1.38 1.50 1.68 1.88 1.81 1.64 1.64 1.74 1.72 1.63 1.70
0.78 0.86 1.33 1.73 1.58 1.47 1.45 1.52 1.43 1.27 1.14 1.03 0.96 0.94 0.93 0.97 0.96 1.00 0.93 0.86 0.85 0.83 0.79 0.85 0.85 0.90 0.92 1.00 1.02 1.03 1.18 1.34 1.47 1.37 1.48 1.69 2.13 2.03 1.76 1.86 1.90 1.75 1.66
0.68 0.74 1.17 1.68 1.55 1.40 1.36 1.47 1.39 1.23 1.21 1.11 1.05 1.02 1.03 1.12 1.23 1.12 1.03 0.99 0.91 0.90 0.85 0.90 0.94 1.00 1.05 1.07 1.10 1.18 1.33 1.46 1.35 1.42 1.52 1.66 2.00 2.05 1.69 1.71 1.72 1.69 1.60
0.68 0.71 0.98 1.46 1.45 1.30 1.25 1.33 1.30 1.24 1.25 1.13 1.07 1.09 1.10 1.15 1.31 1.38 1.26 1.14 1.08 1.05 1.00 0.97 0.96 0.96 1.01 1.11 1.15 1.24 1.40 1.38 1.24 1.51 1.53 1.73 1.83 1.86 1.55 1.49 1.56 1.65 1.78
0.78 0.69 0.82 1.25 1.31 1.21 1.23 1.26 1.25 1.20 1.12 0.99 1.00 1.06 1.08 1.10 1.23 1.38 1.35 1.26 1.21 1.16 1.15 1.13 1.11 1.05 1.04 1.06 1.20 1.29 1.39 1.22 0.94 1.23 1.47 1.75 2.06 1.93 1.50 1.41 1.52 1.66 1.89
1.13 0.96 0.90 0.97 1.02 1.11 1.20 1.23 1.33 1.36 1.15 0.98 0.93 0.94 0.95 0.98 1.05 1.16 1.22 1.21 1.18 1.19 1.19 1.17 1.16 1.13 1.14 1.12 1.14 1.22 1.25 1.16 1.03 1.16 1.15 1.70 2.12 1.96 1.64 1.50 1.45 1.57 1.79
1.17 1.11 1.04 1.05 1.00 0.99 1.07 1.25 1.48 1.58 1.38 1.10 0.97 0.91 0.93 0.93 0.94 1.07 1.10 1.19 1.23 1.25 1.30 1.31 1.27 1.18 1.25 1.25 1.23 1.23 1.19 1.02 0.90 0.97 1.20 1.65 2.16 2.01 1.76 1.52 1.33 1.28 1.50
1.10 1.10 1.03 1.04 1.06 1.16 1.18 1.25 1.50 1.63 1.56 1.19 0.98 0.96 0.88 0.75 0.88 0.96 0.94 1.22 1.34 1.43 1.44 1.46 1.38 1.26 1.24 1.24 1.31 1.32 1.05 0.85 0.87 0.99 1.28 1.88 2.35 2.28 1.89 1.57 1.38 1.26 1.25
0.93 0.94 0.93 0.92 0.90 0.93 0.98 1.30 1.51 1.39 1.45 1.16 1.10 1.03 0.95 0.98 1.03 0.89 0.88 1.16 1.34 1.45 1.43 1.40 1.39 1.29 1.13 0.96 0.99 1.03 0.84 0.71 0.76 0.92 1.39 2.10 2.53 2.51 2.10 1.69 1.40 1.25 1.23
0.82 0.72 0.67 0.70 0.69 0.71 0.81 0.97 1.24 1.47 1.50 1.44 1.38 1.28 1.23 1.14 0.97 0.87 0.89 0.96 1.08 1.17 1.11 1.19 1.21 1.11 1.02 0.96 0.96 0.87 0.79 0.68 0.78 0.91 1.46 2.08 2.49 2.58 2.28 1.78 1.44 1.38 1.46
0.88 0.86 0.68 0.59 0.60 0.58 0.62 0.76 0.98 1.18 1.30 1.30 1.23 1.13 1.32 1.26 1.04 0.95 1.03 1.07 1.08 1.15 1.31 1.36 1.30 1.20 1.09 0.98 0.98 0.90 0.84 0.82 0.82 0.91 1.42 1.80 2.20 2.39 2.42 2.15 1.76 1.53 1.47
0.90 0.94 0.81 0.62 0.53 0.55 0.56 0.61 0.68 0.91 1.04 1.04 1.18 1.13 1.17 1.17 1.05 0.98 0.99 1.14 1.13 1.17 1.37 1.49 1.32 1.25 1.27 1.21 1.15 1.10 1.06 0.99 0.99 0.97 1.26 1.55 1.83 2.22 2.56 2.53 2.18 1.75 1.61
0.78 0.81 0.77 0.67 0.62 0.58 0.54 0.52 0.55 0.60 0.76 0.78 0.80 0.79 0.98 1.11 1.09 1.12 1.02 1.10 1.25 1.30 1.35 1.40 1.34 1.26 1.26 1.28 1.24 1.26 1.25 1.06 1.08 1.09 1.18 1.25 1.39 1.68 2.26 2.63 2.36 1.96 1.84
0.64 0.66 0.70 0.71 0.72 0.67 0.65 0.64 0.60 0.61 0.64 0.71 0.79 0.80 0.90 1.02 1.09 1.11 1.01 1.05 1.22 1.40 1.38 1.35 1.30 1.32 1.20 1.15 1.26 1.34 1.34 1.24 1.24 1.27 1.23 1.21 1.14 1.31 1.76 2.33 2.45 2.24 2.14
0.50 0.49 0.57 0.60 0.65 0.68 0.70 0.73 0.68 0.71 0.72 0.69 0.76 0.75 0.77 0.92 1.08 1.17 1.11 1.07 1.23 1.43 1.58 1.63 1.51 1.45 1.34 1.28 1.37 1.36 1.33 1.42 1.38 1.34 1.30 1.29 1.29 1.18 1.28 1.56 1.93 2.26 2.37
0.38 0.36 0.40 0.46 0.52 0.59 0.66 0.73 0.73 0.76 0.89 0.96 0.86 0.73 0.78 0.90 1.02 1.22 1.32 1.27 1.30 1.47 1.52 1.53 1.57 1.47 1.46 1.42 1.34 1.30 1.27 1.40 1.48 1.30 1.27 1.28 1.40 1.36 1.25 1.08 1.21 1.49 1.94
0.34 0.30 0.33 0.41 0.43 0.45 0.55 0.70 0.80 0.77 0.86 1.08 1.11 1.10 1.14 1.19 1.23 1.38 1.50 1.49 1.49 1.55 1.53 1.64 1.84 1.66 1.49 1.50 1.40 1.29 1.24 1.29 1.37 1.39 1.42 1.38 1.43 1.39 1.30 1.14 1.10 0.94 1.19
0.29 0.26 0.29 0.36 0.40 0.41 0.48 0.59 0.69 0.79 0.97 1.18 1.23 1.30 1.45 1.45 1.46 1.58 1.70 1.74 1.67 1.59 1.65 1.82 2.18 2.07 1.71 1.55 1.60 1.47 1.31 1.27 1.36 1.36 1.49 1.57 1.47 1.39 1.43 1.33 1.15 1.03 0.90
0.24 0.22 0.25 0.34 0.44 0.49 0.53 0.66 0.81 1.03 1.15 1.31 1.47 1.46 1.49 1.53 1.57 1.63 1.84 1.96 1.90 1.88 1.97 2.01 2.26 2.41 2.13 1.94 1.96 2.13 1.89 1.66 1.32 1.10 1.20 1.32 1.37 1.40 1.39 1.41 1.29 1.14 1.08
0.22 0.24 0.27 0.40 0.60 0.79 0.87 1.09 1.36 1.62 1.69 1.63 1.64 1.70 1.68 1.70 1.76 1.72 1.84 2.03 2.02 1.99 2.03 2.22 2.53 2.83 2.73 2.47 2.28 2.44 2.20 1.91 1.74 1.25 1.03 1.09 1.23 1.36 1.39 1.47 1.45 1.32 1.24
0.26 0.34 0.50 0.72 1.01 1.25 1.38 1.56 1.77 1.88 1.92 1.85 1.87 1.86 1.84 1.75 1.67 1.67 1.80 2.00 2.15 2.24 2.31 2.38 2.38 2.73 2.97 2.81 2.65 2.34 2.04 1.89 2.00 1.78 1.32 1.06 1.12 1.20 1.29 1.31 1.41 1.46 1.41
0.53 0.71 1.00 1.25 1.47 1.61 1.66 1.74 1.92 2.07 2.23 2.25 2.15 2.00 1.88 1.84 1.77 1.68 1.73 1.80 1.85 1.94 2.09 2.21 2.28 2.51 2.69 2.83 2.79 2.58 2.31 2.15 1.74 1.73 1.76 1.50 1.22 1.01 1.05 1.19 1.38 1.43 1.42
0.95 1.12 1.33 1.46 1.60 1.60 1.59 1.63 1.75 1.93 2.10 2.14 2.16 2.13 1.99 1.86 1.75 1.65 1.59 1.68 1.70 1.71 1.86 1.98 2.08 2.32 2.50 2.61 2.66 2.56 2.45 2.40 2.14 1.89 1.71 1.68 1.53 1.21 1.03 1.04 1.15 1.26 1.33